Погода в Бирзаи

Поиск расширенной информации на нашем сайте:

Полезная информация:

Новости сайта



02.01.2020
Опубликован Долгосрочный прогноз погоды по городам России и ближнего зарубежья на январь 2020 года.
Карты: Прогноз на январь и февраль 2020 года, Сравнение прогнозируемой аномалии приземной температуры воздуха на январь 2020 года по разным моделям.




Погода в Бирзаи - сегодня

Время (UTC), дата Ветер
(°,м/с) 
Видим.   Явления Облачность Т
(°С)
Тd
(°С)
f(%) Тe
(°С)
Pmin
(гПа)
dP
(гПа)
Po
(мм)
O2
(г/м3)
Тmin Tmax R s Состояние
почвы
12 26.02.20 200 (Ю) 3-7{07}  20000 м    8/8 1020 м 
[Sc]
+5.7 +1 72 +5  989.1  736  290           
15 26.02.20 220 (ЮЗ) 1-4{09}  16000 м    6/6 1500 м 
[Cu Sc]
+5.3 -0.1 68 +6  990  0.9  737  291           
18 26.02.20 170 (Ю) 2-3{04}  20000 м    3/0 верхняя 
[Ci fib]
+1.9 +0.1 88 +1  991.2  1.1  738  295    +6.7       
21 26.02.20 170 (Ю) 2-3{05}  18000 м    10/10 1500 м 
[Sc]
+2.2 +0.9 91 +2  991.5  0.3  738  295           
00 27.02.20 170 (Ю) 1-2{03}  20000 м    10/0 средняя 
[Ac As]
+2 +0.6 90 +3  991.6  0.1  738  295           
03 27.02.20 220 (ЮЗ) 1-4{04}  19000 м    9/0 средняя 
[Ac As]
+1.5 +0.1 90 +2  992  0.3  738  296           
06 27.02.20 200 (Ю) 1-3{04}  13000 м    4/0 средняя 
[Ac und]
-0.1 -0.9 94 +1  992.4  0.4  739  298  -0.4        замёрзшая 
09 27.02.20 200 (Ю) 3-6{06}  20000 м  слаб. ливневой снег  10/10 480 м кучево-дожд. 
[Cb cap]
+1.7 -0.5 85 992.6  0.2  739  296           
12 27.02.20 220 (ЮЗ) 4-8{09}  11000 м  {ливн. осадки}  10/10 700 м 
[Sc]
+3 -0.5 78 +1  991.9  -0.6  738  294      0.0     
15 27.02.20 230 (ЮЗ) 4-7{09}  8000 м  слаб. дождь со снегом  10/10 240 м 
[Frnb|Ns]
+1.3 +0.7 96 -1  992  738  296           
18 27.02.20 230 (ЮЗ) 4-7{09}  19000 м  слаб. дождь со снегом  10/10 480 м 
[Frnb|Ns]
+1 -0.3 91 -1  992.5  0.5  739  297    +3.1     
21 27.02.20 230 (ЮЗ) 3-8{10}  20000 м  слаб. снег{дождь}  10/10 480 м 
[Frnb|Ns]
+0.5 -1 90 -1  992.8  0.3  739  297           
00 28.02.20 250 (З) 4-7{09}  7000 м  слаб. снег{дождь}  10/10 120 м 
[Frnb|Ns]
+0.2 +0.1 99 -2  993.4  0.6  739  298       
03 28.02.20 310 (СЗ) 4-7{09}  16000 м  слаб. снег{дождь}  10/10 240 м 
[Frnb|Ns]
+0 -0.3 98 -2  995.2  1.8  741  298           
06 28.02.20 310 (СЗ) 4-7{08}  20000 м  {снег, дождь}  10/10 400 м 
[St]
-0.2 -1.8 89 -3  997.9  2.6  743  300  -0.4    равномерный
мокрый или
старый снег
100% 
09 28.02.20 290 (З) 3-6{07}  18000 м    10/10 570 м 
[Sc]
+0 -2.4 84 -2  1000.6  2.7  745  300           
12 28.02.20 290 (З) 3-6{08}  18000 м  {ливн. осадки}  9/9 540 м 
[Sc]
+0.7 -2.4 80 -1  1002.4  1.8  746  300      0.0   
15 28.02.20 310 (СЗ) 3-6{08}  19000 м    8/0 средняя 
[Ac trans]
+1.2 -4.2 67 1004.2  1.8  747  300           
18 28.02.20 240 (ЮЗ) 2-4{06}  19000 м    9/0 средняя 
[Ac trans]
+0.1 -2.4 83 -1  1005.2  748  302    +2.3  0.0   
21 28.02.20 240 (ЮЗ) 2-4{05}  20000 м    5/5 1110 м 
[Sc]
-0.8 -1.7 94 -2  1005.7  0.5  749  303           
00 29.02.20 250 (З) 2-4{06}  20000 м    5/5 1000 м 
[Sc]
-0.6 -1.4 94 -1  1006.3  0.6  749  303         
03 29.02.20 250 (З) 2-4{04}  15000 м    ясно 
-2.2 -2.6 97 -3  1006.7  0.3  749  305           
06 29.02.20 240 (ЮЗ) 2-3{04}  10 км    6/6 30 м 
[St]
-2.2 -2.5 98 -3  1006.7  749  305  -2.9      замёрзшая 
09 29.02.20 250 (З) 4-6{06}  17000 м    9/9 120 м 
[Sc]
-0.9 -2 92 -3  1007.1  0.5  750  303           
12 29.02.20 180 (Ю) 3-6{07}  20000 м    10/10 900 м 
[Sc]
+1.9 -0.9 82 1006.1  -1  749  300           
Время (UTC), дата Ветер
(°,м/с) 
Видим.   Явления Облачность Т
(°С)
Тd
(°С)
f(%) Тe
(°С)
Pmin
(гПа)
dP
(гПа)
Po
(мм)
O2
(г/м3)
Тmin Tmax R s Состояние
почвы

Для получения пояснительной информации подведите курсор к названию столбца.

ПОГОДА в Бирзаи - архив

Всё, что Вы хотите узнать о погоде в Бирзаи - удобно и подробно!

Выберите нужную дату (начиная с 1 января 2019* года) и нажмите кнопку "Найти".
Будут отображены архивные сводки погоды по пункту Бирзаи, начиная с указанной даты.


Отображать данные в формате CSV (для использования в таблицах Excel)


Внимание! Наш архив погоды предназначен исключительно для личного некоммерческого использования в познавательных целях. Если Вам необходимы официальные справки о состоянии погоды (для производственных, юридических, коммерческих и т.п. целей), обращайтесь в органы Росгидромета.

*Примечание: данная дата относится к архиву по метеостанциям СССР (Россия, СНГ, Балтия).
Архив по метеостанциям Зарубежной Европы и Азии (кроме Китая) хранится 10 дней, по другим регионам земного шара (Китай, Африка, Америка, Австралия, Океания) - 1 день.

Бирзаи - район местоположения метеостанции


Название, широта, долгота, высота метеостанции:
Бирзаи 56.2°ш. 24.8°д. 62 м над ур. моря [Литва]

Дополнительная информация

В oтличие oт бoльшинства пoгoдных сайтoв мы публикуем пoдрoбную метеoинфoрмацию в детальнoм прoфессиoнальнoм фoрмате.

Характеристики температуры и влажнoсти вoздуха измеряются на высoте 2 м в тени вдали oт зданий и деревьев.
Скoрoсть ветра измеряется на высoте 10 м (на урoвне рoста челoвека скoрoсть ветра ниже в 1.5-2 раза). Если метеoстанция нахoдится в гoрoде или в лесу, тo скoрoсть ветра занижена на 2-4 м/с пo сравнению с oткрытым местoм. Скoрoсть ветра над акватoриями крупных рек и oзёр, а также на вершинах хoлмoв на 2-5 м/с выше, чем в oбычных услoвиях.
Атмoсфернoе давление в разных тoчках местнoсти мoжет значительнo oтличаться oт давления на метеoстанции, в зависимoсти oт услoвий рельефа (при пoдъёме на 10 м давление пoнижается примернo на 1 мм рт.ст.).